www.pogodaiklimat.ru

Погода и климат >> Архив погоды >> Филиппины >> База ВВС Clark


ПОГОДА на Базе ВВС Clark

  • Прогноз погоды на Базе ВВС Clark
  • Монитор погоды на Базе ВВС Clark

АРХИВ ПОГОДЫ на Базе ВВС Clark

Время (UTC), дата Ветер
(напр.,м/с)
 
Видим.   Явления Облачность Т
(С)
Тd
(С)
f
(%)
Тe
(С)
Тes
(С)
Комфортность P
(гПа)
Po
(гПа)
Тmin
(С)
Tmax
(С)
R
(мм)
R24
(мм)
S
(см)
03 10.06 Ю 4 10 км мгла {туман} 8/4 600 м
[Cu med, cong Cs]
+33.6 +24.3 58 +46 +53 опасность
перегрева
1008.1 990.9
06 10.06 ЮЗ 4 10 км гроза без осадков {туман} 9/5 540 м
[Cb cap Ac As]
+33.4 +25.0 62 +47 +50 опасность
перегрева
1006.3 989.2
09 10.06 Ю 4 10 км в посл. час ливневой дождь {гроза} 9/5 540 м
[Cb cap Ac As]
+25.5 +25.5 100 +37 +37 очень
душно
1006.3 989.2 0.2
12 10.06 В 2 12 км зарница {туман} 9/5 540 м
[Cb cap Ac As]
+29.5 +24.3 74 +41 +41 опасность
перегрева
1008.4 991.3 +34.5 0.2
15 10.06 С 2 12 км мгла {туман} 9/4 600 м
[Sc diur, vesp Ac As]
+27.8 +25.2 86 +40 +40 очень
душно
1009.7 992.5
18 10.06 С 2 12 км мгла {туман} 8/4 600 м
[Sc diur, vesp Ac As]
+26.6 +25.3 93 +39 +39 очень
душно
1008.6 991.4
21 10.06 Ю 1 12 км мгла {туман} 9/4 600 м
[Sc diur, vesp Ac As]
+26.3 +25.1 93 +38 +38 очень
душно
1007.4 990.2
00 11.06 Ю 7 10 км мгла {туман} 6/3 600 м
[Cu med, cong Cs]
+28.8 +25.5 82 +42 +43 опасность
перегрева
1008.4 991.2 +26.2 0.2
03 11.06 Ю 6 12 км мгла {туман} 6/4 600 м
[Cu med, cong Cs]
+33.9 +25.1 60 +48 +52 опасность
перегрева
1008.4 991.2
06 11.06 Ю 5 15 км осадки на расстоянии {гроза, туман} 6/5 450 м
[Cb cap Cs]
+33.8 +24.5 58 +46 +50 опасность
перегрева
1006.6 989.5 0.0
09 11.06 Ю 3 15 км осадки на расстоянии {туман} 9/4 600 м
[Sc diur, vesp Ac As]
+31.2 +23.8 65 +43 +43 опасность
перегрева
1006.7 989.5
12 11.06 СВ 2 15 км мгла {туман} 9/5 600 м
[Sc diur, vesp Ac As]
+28.7 +25.3 82 +42 +42 опасность
перегрева
1009.7 992.4 +34.7
15 11.06 В 1 15 км мгла {туман} 9/3 600 м
[Cu med, cong Ac As]
+27.8 +22.9 75 +37 +37 очень
душно
1010.1 992.9
18 11.06 С 1 15 км мгла {туман} 9/4 600 м
[Sc diur, vesp Ac As]
+26.7 +24.0 85 +37 +37 очень
душно
1009.4 992.2
21 11.06 ЮЗ 1 15 км мгла {туман} 8/5 600 м
[Sc diur, vesp Ac As]
+26.4 +23.9 86 +36 +36 очень
душно
1009.1 991.8
00 12.06 СВ 1 12 км слаб. ливневой дождь {туман} 10/5 600 м
[Sc diur, vesp Ac As]
+27.4 +24.3 83 +38 +40 очень
душно
1010.1 992.8 +25.8 0.0
03 12.06 Ю 4 12 км мгла {дождь, туман} 10/4 600 м
[Cu med, cong Cs]
+31.2 +25.0 70 +45 +52 опасность
перегрева
1009.7 992.5 0.0
06 12.06 З 5 20 км мгла {туман} 9/4 600 м
[Cu med, cong Cs]
+34.0 +23.6 55 +45 +50 опасность
перегрева
1007.4 990.3 0.0
09 12.06 З 5 20 км мгла {туман} 9/4 600 м
[Cu med, cong Cs]
+34.0 +23.6 55 +45 +46 опасность
перегрева
1007.4 990.3 0.0
12 12.06 С 3 18 км мгла {туман} 8/3 600 м
[Sc diur, vesp Cs]
+26.7 +24.1 86 +37 +37 очень
душно
1009.6 992.2 +35.0
15 12.06 СЗ 2 18 км мгла {туман} 8/3 600 м
[Cu hum Cs]
+26.8 +24.5 87 +38 +38 очень
душно
1010.3 993.0
18 12.06 Ю 1 18 км мгла {туман} 8/3 600 м
[Cu hum Cs]
+27.5 +24.2 82 +38 +38 очень
душно
1009.2 992.0
21 12.06 Ю 1 15 км мгла {туман} 6/1 600 м
[Cu hum Cs]
+25.3 +23.9 92 +35 +35 очень
душно
1007.4 990.2
00 13.06 С 1 15 км в посл. час ливневой дождь {туман} 9/5 540 м
[Sc diur, vesp Ac As]
+28.1 +25.1 84 +41 +43 опасность
перегрева
1009.8 992.4 +25.3 0.1
03 13.06 Ю 8 15 км ливневой дождь {туман} 10/5 450 м
[Sc diur, vesp Ac As]
+29.0 +25.3 80 +42 +43 опасность
перегрева
1010.1 992.8 2
06 13.06 СВ 2 8000 м слаб. дождь {туман} 9/5 600 м
[Sc diur, vesp Ac As]
+27.9 +26.3 91 +42 +46 опасность
перегрева
1008.9 991.6 14
09 13.06 В 1 12 км мгла {дождь, туман} 9/4 600 м
[Sc diur, vesp Ac As]
+28.0 +25.1 84 +40 +41 очень
душно
1008.2 990.8 0.5
12 13.06 В 1 12 км мгла {дождь, туман} 8/3 600 м
[Cu med, cong Cs]
+26.9 +24.9 89 +39 +39 очень
душно
1009.0 991.7 +31.9 0.5
15 13.06 Ю 2 12 км мгла {туман} 8/3 600 м
[Cu med, cong Cs]
+26.4 +25.2 93 +38 +38 очень
душно
1009.5 992.2
18 13.06 Ю 1 12 км мгла {туман} 9/3 600 м
[Cu med, cong Cs]
+25.9 +24.8 94 +37 +37 очень
душно
1007.7 990.4
21 13.06 ЮВ 1 10 км мгла {туман} 9/4 600 м
[Cu med, cong Ac As]
+25.9 +24.8 94 +37 +37 очень
душно
1007.4 990.1
00 14.06 Ю 4 10 км мгла {туман} 8/4 600 м
[Cu med, cong Cs]
+28.1 +25.6 86 +41 +44 опасность
перегрева
1008.6 991.3 +25.8 15
03 14.06 Ю 6 15 км мгла {туман} 9/5 600 м
[Cu med, cong Cs]
+32.4 +25.1 65 +46 +49 опасность
перегрева
1007.8 990.6
06 14.06 ЮЗ 2 15 км в посл. час ливневой дождь {туман} 9/5 600 м
[Sc diur, vesp Ac As]
+30.2 +25.4 76 +44 +48 опасность
перегрева
1007.3 990.0 2
09 14.06 С 2 12 км в посл. час дождь {туман} 9/5 540 м
[Sc diur, vesp Ac As]
+27.2 +25.8 92 +40 +41 очень
душно
1007.4 990.0 2
12 14.06 Ю 2 12 км мгла {дождь, туман} 10/5 600 м
[Sc diur, vesp Ac As]
+27.0 +25.4 91 +39 +39 очень
душно
1008.9 991.6 +33.6 2
15 14.06 СВ 1 15 км мгла {туман} 8/3 600 м
[Cu med, cong Cs]
+26.2 +25.4 95 +38 +38 очень
душно
1009.4 992.2
18 14.06 Ю 3 15 км мгла {туман} 10/5 600 м
[Sc diur, vesp Ac As]
+25.4 +24.8 96 +36 +36 очень
душно
1007.8 990.5
21 14.06 С 1 15 км мгла {туман} 10/5 600 м
[Sc diur, vesp Ac As]
+25.4 +24.7 96 +36 +36 очень
душно
1008.1 990.7
00 15.06 С 2 12 км мгла {дождь, туман} 10/5 540 м
[Sc diur, vesp Ac As]
+25.7 +24.6 94 +36 +37 очень
душно
1008.6 991.2 +24.9 5
03 15.06 С 3 7000 м слаб. дождь {туман} 10/5 540 м
[Sc diur, vesp Ac As]
+30.0 +24.9 74 +43 +46 опасность
перегрева
1008.9 991.6 0.0
06 15.06 СЗ 1 8000 м слаб. дождь {туман} 10/5 540 м
[Sc diur, vesp Ac As]
+30.1 +25.1 75 +44 +47 опасность
перегрева
1007.3 990.0 2
09 15.06 С 2 9000 м слаб. дождь {туман} 10/5 540 м
[Sc diur, vesp Ac As]
+26.5 +25.4 94 +39 +39 очень
душно
1007.0 989.6 15
12 15.06 Ю 3 12 км мгла {дождь, туман} 9/4 600 м
[Sc diur, vesp Ac As]
+25.3 +24.5 95 +35 +35 очень
душно
1008.0 990.6 +30.5 15
15 15.06 СВ 1 15 км мгла {туман} 8/3 600 м
[Sc diur, vesp Cs]
+25.3 +24.8 97 +36 +36 очень
душно
1009.3 992.0
18 15.06 Ю 1 8000 м мгла {туман} 8/4 540 м
[Sc diur, vesp Ac trans]
+24.9 +24.5 98 +35 +35 очень
душно
1008.0 990.7
21 15.06 Ю 1 10 км мгла {туман} 9/4 600 м
[Sc diur, vesp Ac As]
+24.9 +24.4 97 +35 +35 очень
душно
1007.4 990.0
00 16.06 Ю 1 8000 м мгла {туман} 8/4 600 м
[Sc diur, vesp Cs]
+27.7 +26.0 90 +41 +46 опасность
перегрева
1008.8 991.4 +24.8 17
03 16.06 Ю 5 15 км в посл. час ливневой дождь {туман} 6/4 600 м
[Cu med, cong Cs]
+32.0 +24.9 66 +45 +51 опасность
перегрева
1008.9 991.6 0.0
06 16.06 ЮЗ 5 15 км мгла {туман} 6/4 600 м
[Cu med, cong Cs]
+33.9 +24.1 57 +46 +51 опасность
перегрева
1007.7 990.4 0.0
09 16.06 Ю 6 15 км мгла {туман} 6/4 600 м
[Cu med, cong Cs]
+32.0 +23.7 62 +43 +44 опасность
перегрева
1007.5 990.2 0.0
12 16.06 ЮВ 2 15 км мгла {туман} 6/4 600 м
[Cu med, cong Cs]
+29.1 +24.2 75 +41 +41 опасность
перегрева
1009.6 992.3 +34.0
15 16.06 Ю 1 15 км зарница {туман} 8/5 450 м
[Cb cap Cs]
+27.5 +24.0 81 +38 +38 очень
душно
1010.5 993.3
18 16.06 С 1 15 км мгла {туман} 8/3 600 м
[Sc diur, vesp Ci ing]
+27.0 +23.6 82 +37 +37 очень
душно
1009.9 992.7
21 16.06 С 1 10 км мгла {туман} 9/4 600 м
[Sc diur, vesp Ac As]
+25.6 +24.0 91 +35 +35 очень
душно
1009.0 991.8

 

Местоположение метеостанции База ВВС Clark (Филиппины): широта 15.17 долгота 120.56 высота над уровнем моря 155 м.

В архиве по умолчанию представлена погода на Базе ВВС Clark за последнюю неделю. Архивные данные за месяц целиком и за предыдущие месяцы, начиная с января 2011 года, Вы можете получить, выбрав интересующий диапазон дат из раскрывающегося списка и нажав кнопку "Ввод!".


*Определитесь, кто Вы:
робот инопланетянин человек

Внимание! Время в таблицах - всемирное. Для получения местного времени необходимо прибавить поправку, которая равна 8 ч.

Смотрите также архив погоды в соседних городах и на ближайших метеорологических станциях:

Погода в Куби Пойнт (Филиппины) (52 км)
Погода в Кабанатуане (Филиппины) (55 км)
Погода в Ибе (Филиппины) (67 км)
Погода в Научном саду (Филиппины) (77 км)
Погода в Маниле (Филиппины) (80 км)
Погода в Сангли Пойнт (Филиппины) (83 км)
Погода в Аэропорту Ninoy Aquino (Филиппины) (86 км)
Погода в Дагупане (Филиппины) (101 км)
Погода в Танае (Филиппины) (113 км)
Погода в Инфанте (Филиппины) (126 км)

Пояснения к столбцам:

Ветер - указаны скорость ветра в м/с - средняя за 10 мин, порывы в срок и между сроками (в фигурных скобках) и направление, откуда дует ветер: С - северный, СВ - северо-восточный, В - восточный, ЮВ - юго-восточный, Ю - южный, ЮЗ - юго-западный, З - западный, СЗ - северо-западный.
Видимость - горизонтальная дальность видимости в метрах или километрах. При видимости от 1 до 10 км при отсутствии осадков обычно наблюдается дымка, при ухудшении видимости до 1 км и менее - туман. В сухую погоду видимость может ухудшаться дымом, пылью или мглою.
Явления - указаны атмосферные явления, наблюдавшиеся в срок или в последний час перед сроком; фигурными скобками обозначены явления, наблюдавшиеся между сроками (за 1-3 часа до срока); квадратными скобками обозначены град или гололедные отложения с указанием их диаметра в мм.
Облачность - указаны через наклонную черту общая и нижняя облачность в баллах и высота нижней границы облаков в метрах; квадратными скобками обозначены формы облаков: Ci - перистые, Cs - перисто-слоистые, Cc - перисто-кучевые, Ac - высококучевые, As - высокослоистые, Sc - слоисто-кучевые, Ns - слоисто-дождевые, Cu - кучевые, Cb - кучево-дождевые. Подробнее классификацию облаков см. в Атласе облаков (PDF).
T - Температура воздуха - температура, измеренная на высоте 2 м над землей.
Td - Температура точки росы - температура, при понижении до которой содержащийся в воздухе водяной пар достигнет насыщения.
f - Относительная влажность воздуха - влажноcть воздуха, измеренная на высоте 2 м над землей.
Te - Эффективная температура - температура, которую ощущает одетый по сезону человек в тени. Характеристика душности погоды. При расчете учитывается влияние влажности воздуха и скорости ветра на теплоощущения человека.
Tes - Эффективная температура на солнце - температура, которую ощущает человек, с поправкой на солнечный нагрев. Характеристика знойности погоды. Зависит от высоты солнца над горизонтом, облачности и скорости ветра. Ночью, в пасмурную погоду, а также при ветре 12 м/с и более поправка равна нулю.
P - Атмосферное давление - приведенное к уровню моря атмосферное давление.
Po - Атмосферное давление - измеренное на уровне метеостанции атмосферное давление.
Tmin - Минимальная температура - минимум температуры воздуха на высоте 2 м над землей.
Tmax - Максимальная температура - максимум температуры воздуха на высоте 2 м над землей.
R - Количество осадков - Количество выпавших осадков за период времени, мм. При наведении курсора мыши на число - период времени, за который выпало указанное количество осадков.
R24 - Количество осадков - Количество выпавших осадков за 24 часа, мм.
S - Снежный покров - Высота снежного покрова, см. При наведении курсора мыши на число - состояние снежного покрова и степень покрытия местности в баллах.